Terug naar catalogus

COSMOS 1066 DEB

ActiefPO
NORAD 45656·DEBRIS·🇷🇺 Russia

Gelanceerd Dec 23, 1978 vanaf Plesetsk Cosmodrome

Loading…

Volgende Passages (komende 24 uur)

TLE

VersSource: Space-Track

Epoch: Sep 14, 2026, 09:17 UTC

1 45656U 78121D   26257.38708327  .00003924  00000-0  12953-2 0  9995
2 45656  81.2299 134.5842 0027854  96.9850 263.4506 14.37699590331847

Volg COSMOS 1066 DEB in realtime met AllMySat

Download on the App Store